CAPE
0 0 0 0 0 0 0 0 0 0 0 0 0 0 0 0 0 0 0 0 0 0 0 0 0 0 0 0 0 17 64 323 957 1393 1517 873 536 196 147 239 301 171 414 271
0 0 0 0 0 0 0 0 0 0 0 0 0 0 0 0 0 0 0 0 0 0 0 0 0 0 0 42 107 230 410 720 946 943 958 779 621 461 271 71 132 45 117 304
0 0 0 0 0 0 0 0 0 0 0 0 0 0 0 0 0 0 0 0 0 0 0 0 0 0 0 39 280 296 425 742 740 915 756 940 628 517 106 116 64 75 250 347
0 0 0 0 0 0 0 0 0 0 0 0 0 0 0 0 0 0 0 0 0 0 0 0 0 0 0 105 399 371 531 613 373 730 695 1032 955 902 598 407 391 357 312 212
0 0 0 0 0 0 0 0 0 0 0 0 0 0 0 0 0 0 0 0 0 0 0 0 0 0 0 31 432 516 558 299 306 690 1106 1206 1213 901 617 257 326 312 35 8
0 0 0 0 0 0 0 0 1 3 2 5 0 0 0 0 0 0 0 0 0 0 0 0 0 0 0 0 63 200 235 243 296 541 1043 1134 1167 730 692 550 527 367 10 8
6 0 0 0 0 4 0 6 26 17 8 0 0 0 0 0 0 0 0 0 0 0 0 0 0 0 0 1 0 27 2 77 24 163 594 816 776 585 442 566 456 277 53 9
6 53 0 0 0 0 4 28 11 3 10 4 0 0 9 9 0 0 0 0 0 0 0 0 0 0 0 2 209 50 73 7 11 25 251 464 494 321 331 483 341 198 74 13
2 7 13 0 0 0 0 36 11 27 3 0 3 59 63 9 0 0 0 0 0 0 0 0 0 0 0 0 8 291 60 105 12 7 87 188 253 602 453 498 416 469 89 5
12 6 0 0 0 24 9 1 6 8 13 3 0 27 29 8 0 0 0 0 0 0 0 0 0 0 0 0 0 0 274 46 18 7 42 363 385 488 417 333 491 427 131 75
4 56 11 2 0 6 17 65 22 16 16 11 16 13 75 9 0 0 0 0 0 0 0 0 0 0 0 0 0 0 3 12 11 21 19 346 225 212 262 56 68 77 22 1
39 47 77 37 8 0 2 13 35 114 32 44 35 17 9 27 0 0 0 0 0 0 0 0 0 0 0 0 0 0 0 15 16 19 29 221 266 160 201 78 59 25 17 70
73 53 48 53 79 0 0 0 0 0 1 47 65 54 98 62 0 0 0 0 0 0 0 0 0 4 0 0 0 0 0 1 15 22 33 61 256 57 72 32 38 14 10 15
58 60 43 70 2 2 2 0 0 0 1 1 25 20 5 0 0 0 0 0 0 0 0 0 1 30 6 0 0 0 0 0 8 11 20 42 86 32 14 54 16 10 5 18
86 53 55 33 1 0 1 1 2 1 0 0 0 0 0 0 0 0 0 0 0 0 0 0 21 83 16 0 0 0 0 0 6 4 15 20 15 98 59 60 7 13 18 11
103 64 68 34 7 9 8 2 0 0 0 0 0 0 0 0 0 0 0 0 0 0 26 99 9 2 2 2 0 1 0 0 1 11 10 18 35 56 48 40 10 10 7 5
154 94 80 62 39 21 4 0 0 0 0 0 0 0 0 0 0 0 0 0 2 66 78 6 3 1 3 3 0 2 2 4 4 10 13 21 36 32 54 26 13 7 2 0
153 117 82 92 53 38 1 0 0 0 0 0 0 0 0 0 0 1 1 2 99 42 1 0 1 2 3 4 5 4 2 4 5 5 15 13 24 25 45 18 8 0 0 0
52 84 63 58 56 18 1 0 0 0 0 0 0 1 0 8 82 163 126 73 8 1 0 1 2 3 3 4 3 5 4 5 3 5 15 2 13 20 31 2 1 1 0 0
1 39 68 25 21 10 2 0 0 9 2 94 55 24 6 10 229 281 2 4 2 2 2 1 2 3 3 2 2 6 3 4 1 2 1 0 1 2 1 0 0 1 0 1
12 96 38 10 73 25 5 19 40 35 107 114 7 4 1 15 12 11 4 3 0 2 2 2 3 3 5 3 2 4 3 6 5 2 1 0 0 0 0 0 0 0 1 1
39 61 179 111 110 65 45 18 59 143 193 10 6 15 27 14 9 6 5 3 2 4 4 2 3 2 2 3 3 2 2 3 4 3 1 0 0 0 0 0 0 0 0 0
36 36 36 114 124 171 29 52 75 61 54 21 10 8 3 4 6 5 3 4 6 6 4 2 1 0 1 2 2 4 4 2 3 1 1 0 0 0 0 0 0 0 0 1
9 18 86 25 25 13 23 8 10 6 3 1 3 3 4 2 4 4 2 3 3 3 3 2 1 0 0 1 1 3 4 2 1 0 0 0 0 0 0 0 0 0 0 2
34 56 14 32 4 4 12 14 6 11 10 6 2 4 4 3 2 2 2 1 2 2 2 2 1 1 1 1 1 2 3 2 1 1 1 1 0 0 0 0 0 1 0 0
18 19 22 21 10 18 19 2 13 18 23 12 4 3 2 2 0 1 2 3 5 4 4 3 3 3 2 1 1 2 3 2 1 1 1 1 1 1 0 0 1 5 1 3
CIN
-0 -0 -0 -0 -0 -0 -0 -0 -0 -0 -0 -0 -0 -0 -0 -0 -0 -0 -0 -0 -0 -0 -0 -0 -0 -0 -0 -0 -0 -448 -414 -298 -208 -154 -156 -266 -355 -437 -360 -253 -188 -191 -49 -53
-0 -0 -0 -0 -0 -0 -0 -0 -0 -0 -0 -0 -0 -0 -0 -0 -0 -0 -0 -0 -0 -0 -0 -0 -0 -0 -0 -342 -324 -299 -285 -237 -206 -264 -259 -272 -287 -304 -311 -337 -236 -250 -135 -32
-0 -0 -0 -0 -0 -0 -0 -0 -0 -0 -0 -0 -0 -0 -0 -0 -0 -0 -0 -0 -0 -0 -0 -0 -0 -0 -0 -345 -242 -247 -224 -223 -254 -230 -289 -231 -279 -268 -362 -315 -276 -197 -74 -12
-0 -0 -0 -0 -0 -0 -0 -0 -0 -0 -0 -0 -0 -0 -0 -0 -0 -0 -0 -0 -0 -0 -0 -0 -0 -0 -0 -270 -191 -229 -199 -244 -344 -260 -291 -222 -238 -217 -233 -233 -164 -92 -42 -22
-0 -0 -0 -0 -0 -0 -0 -0 -0 -0 -0 -0 -0 -0 -0 -0 -0 -0 -0 -0 -0 -0 -0 -0 -0 -0 -0 -378 -185 -165 -186 -321 -337 -256 -168 -150 -119 -122 -164 -248 -166 -97 -206 -5
-0 -0 -0 -0 -0 -0 -0 -0 -6 -30 -14 -0 -0 -0 -0 -0 -0 -0 -0 -0 -0 -0 -0 -0 -0 -0 -0 -0 -305 -311 -288 -291 -298 -245 -136 -119 -79 -125 -115 -121 -91 -80 -54 -0
-0 -0 -0 -0 -0 -9 -0 -21 -0 -0 -0 -0 -0 -0 -0 -0 -0 -0 -0 -0 -0 -0 -0 -0 -0 -0 -0 -98 -0 -404 -49 -325 -414 -325 -189 -132 -145 -150 -139 -86 -65 -74 -186 -0
-0 -0 -0 -0 -0 -0 -0 -1 -0 -0 -0 -0 -0 -0 -0 -14 -3 -0 -0 -0 -0 -0 -0 -0 -0 -0 -0 -116 -121 -281 -256 -0 -74 -374 -306 -205 -176 -202 -155 -91 -59 -74 -106 -0
-0 -0 -13 -0 -0 -0 -0 -0 -0 -0 -3 -0 -0 -5 -15 -22 -0 -0 -0 -0 -0 -0 -0 -0 -0 -0 -0 -0 -160 -79 -199 -234 -106 -25 -331 -278 -200 -85 -111 -76 -39 -16 -65 -1
-0 -0 -0 -0 -0 -1 -1 -2 -0 -0 -0 -0 -0 -0 -0 -20 -0 -0 -0 -0 -0 -0 -0 -0 -0 -0 -0 -0 -0 -0 -74 -174 -181 -0 -333 -175 -138 -105 -115 -101 -36 -15 -53 -37
-1 -0 -0 -0 -0 -0 -3 -0 -1 -1 -0 -0 -0 -0 -2 -31 -0 -0 -0 -0 -0 -0 -0 -0 -0 -0 -0 -0 -0 -0 -22 -0 -0 -297 -173 -137 -134 -142 -137 -235 -211 -153 -172 -7
-0 -0 -0 -0 -0 -2 -0 -0 -26 -0 -0 -0 -0 -1 -12 -41 -0 -0 -0 -0 -0 -0 -0 -0 -0 -0 -0 -0 -0 -0 -0 -0 -0 -260 -247 -136 -93 -127 -144 -217 -242 -183 -98 -70
-0 -0 -0 -0 -0 -1 -0 -0 -0 -0 -0 -0 -0 -0 -0 -12 -0 -0 -0 -0 -0 -0 -0 -0 -0 -0 -0 -0 -0 -0 -0 -0 -0 -0 -204 -142 -77 -173 -201 -261 -271 -0 -0 -0
-5 -0 -0 -0 -24 -0 -0 -0 -0 -0 -0 -1 -1 -1 -1 -0 -0 -0 -0 -0 -0 -0 -0 -0 -0 -0 -0 -0 -0 -0 -0 -0 -0 -0 -62 -140 -113 -190 -189 -213 -0 -0 -1 -0
-0 -0 -0 -0 -0 -0 -0 -0 -0 -0 -0 -0 -0 -0 -0 -0 -0 -0 -0 -0 -0 -0 -0 -0 -0 -0 -0 -0 -0 -0 -0 -0 -0 -0 -111 -34 -109 -129 -164 -186 -0 -0 -0 -2
-0 -0 -0 -0 -0 -0 -0 -0 -0 -0 -0 -0 -0 -0 -0 -0 -0 -0 -0 -0 -0 -0 -22 -0 -2 -0 -0 -0 -0 -0 -0 -0 -0 -0 -0 -82 -154 -154 -176 -62 -1 -1 -0 -0
-0 -0 -0 -0 -0 -0 -0 -0 -0 -0 -0 -0 -0 -0 -0 -0 -0 -0 -0 -0 -0 -6 -1 -15 -0 -0 -0 -0 -0 -0 -0 -0 -0 -0 -0 -0 -88 -102 -148 -0 -1 -8 -0 -0
-0 -0 -0 -0 -0 -0 -0 -0 -0 -0 -0 -0 -0 -0 -0 -0 -0 -0 -0 -0 -0 -0 -0 -0 -0 -0 -0 -0 -0 -0 -0 -0 -0 -0 -0 -0 -48 -69 -59 -0 -0 -0 -0 -0
-0 -0 -0 -0 -0 -0 -0 -0 -0 -0 -0 -0 -0 -0 -0 -0 -3 -0 -0 -0 -0 -0 -0 -0 -0 -0 -0 -0 -0 -0 -0 -0 -0 -0 -0 -0 -116 -131 -0 -0 -0 -0 -0 -0
-1 -0 -0 -0 -0 -0 -0 -0 -0 -4 -0 -1 -0 -0 -0 -0 -0 -0 -0 -0 -0 -0 -0 -0 -0 -0 -0 -0 -0 -0 -0 -0 -0 -0 -0 -0 -1 -1 -0 -0 -0 -0 -0 -0
-0 -0 -0 -0 -0 -0 -0 -0 -0 -0 -0 -0 -0 -0 -0 -1 -0 -0 -0 -0 -0 -0 -0 -0 -0 -0 -0 -0 -0 -0 -0 -0 -0 -0 -0 -0 -0 -0 -0 -0 -0 -0 -0 -0
-0 -4 -0 -0 -0 -0 -0 -0 -0 -0 -0 -0 -0 -0 -0 -0 -0 -0 -0 -0 -0 -0 -0 -0 -0 -0 -0 -0 -0 -0 -0 -0 -0 -0 -0 -0 -0 -0 -0 -0 -0 -0 -0 -0
-0 -0 -0 -0 -0 -0 -0 -15 -0 -0 -0 -0 -0 -0 -0 -0 -0 -0 -0 -0 -0 -0 -0 -0 -0 -0 -0 -0 -0 -0 -0 -0 -0 -0 -0 -0 -0 -0 -0 -0 -0 -0 -0 -0
-0 -0 -0 -0 -0 -0 -0 -0 -0 -0 -0 -0 -0 -0 -0 -0 -0 -0 -0 -0 -0 -0 -0 -0 -0 -0 -0 -0 -0 -0 -0 -0 -0 -0 -0 -0 -0 -0 -0 -0 -0 -0 -0 -0
-1 -0 -0 -0 -0 -0 -0 -0 -0 -0 -0 -0 -0 -0 -0 -0 -0 -0 -0 -0 -0 -0 -0 -0 -0 -0 -0 -0 -0 -0 -0 -0 -0 -0 -0 -0 -0 -0 -0 -0 -0 -0 -0 -0
-0 -0 -0 -0 -0 -0 -0 -0 -0 -0 -0 -0 -0 -0 -0 -0 -0 -0 -0 -0 -0 -0 -0 -0 -0 -0 -0 -0 -0 -0 -0 -0 -0 -0 -0 -0 -0 -0 -0 -0 -0 -0 -0 -0
Wind_Speed
14 14 22 22 20 20 19 19 19 17 8 13 18 18 13 11 17 16 15 14 12 9 5 7 7 8 10 10 10 11 12 12 12 11 12 10 11 10 10 11 14 11 12 13
11 22 20 19 19 20 22 22 23 19 8 14 19 23 20 13 18 16 14 11 8 5 5 8 11 12 11 13 11 10 10 12 14 10 10 9 10 9 10 9 12 12 15 14
22 10 10 16 17 20 21 23 18 18 13 15 17 21 22 14 14 9 9 5 1 1 5 8 11 11 11 13 11 10 9 10 13 15 10 10 11 8 7 9 8 11 16 16
18 16 17 11 15 17 20 16 16 16 10 15 11 10 8 9 9 11 6 5 3 1 5 7 10 11 12 13 10 8 7 8 12 15 14 18 13 11 9 11 9 10 14 13
12 8 14 19 23 15 16 11 9 15 16 18 16 9 10 7 16 10 7 5 3 3 4 8 10 11 11 12 11 8 6 6 12 12 16 14 13 8 7 6 12 12 9 11
16 17 10 12 12 15 19 13 11 11 11 16 17 14 10 16 17 8 9 7 4 4 6 9 10 10 12 12 8 9 6 7 9 11 15 16 13 10 8 9 9 9 7 7
13 16 16 16 14 7 14 12 9 10 11 16 11 11 13 9 7 7 7 5 3 6 8 10 13 13 13 15 12 5 6 8 9 10 14 14 12 11 12 10 9 11 8 8
8 8 0 7 17 13 17 17 10 12 14 16 11 10 8 10 10 8 5 2 3 6 8 11 12 12 14 15 15 12 7 10 10 10 11 13 13 9 9 10 9 8 7 9
10 9 5 7 5 17 14 17 19 15 8 8 9 9 8 10 10 8 7 4 6 7 8 10 11 10 12 14 18 14 7 8 11 11 10 13 13 14 12 11 11 10 10 6
6 11 4 2 12 6 13 11 15 10 17 21 19 18 10 16 10 7 8 8 7 8 9 9 9 10 12 12 11 17 9 8 11 12 10 13 14 14 11 9 11 10 8 9
11 9 14 7 4 4 6 8 5 9 15 16 16 12 14 16 8 4 6 9 9 10 9 8 8 11 13 11 12 11 12 9 10 12 11 13 13 14 13 11 10 10 9 7
7 8 11 12 5 7 9 5 4 5 14 11 8 3 13 11 4 4 6 8 8 11 9 7 7 9 11 12 12 14 12 10 9 11 11 11 11 14 13 12 12 9 8 9
11 4 9 12 9 7 6 7 2 2 6 10 10 7 10 6 6 8 9 12 9 12 10 8 8 8 9 10 13 13 12 15 9 11 11 10 11 13 13 12 11 8 7 6
13 11 11 13 8 8 5 7 11 6 4 6 10 8 6 7 10 10 14 12 12 13 11 9 9 8 8 9 10 12 10 12 9 9 10 10 11 12 12 12 11 9 8 7
7 14 14 15 16 14 13 16 13 12 13 12 13 14 13 15 15 16 14 14 14 14 11 8 7 9 10 12 11 10 9 11 13 10 10 11 10 11 12 12 10 8 7 6
5 9 11 15 16 14 16 16 17 17 16 17 19 18 19 14 10 12 15 14 15 13 7 7 8 10 11 12 12 11 9 11 14 10 11 12 12 12 14 13 11 10 8 7
10 7 10 14 11 13 14 17 18 20 17 15 16 19 18 15 16 16 16 15 14 8 7 8 10 10 12 12 11 12 11 12 13 11 10 12 14 13 14 13 12 10 9 8
14 14 10 11 11 13 10 8 9 12 14 14 15 18 18 18 18 19 18 14 4 4 6 8 9 11 12 13 13 13 11 12 11 12 10 12 14 12 14 13 12 9 9 9
13 14 9 8 10 13 17 8 9 12 15 14 13 14 17 19 22 18 1 5 4 6 7 9 10 12 13 13 15 14 13 13 13 14 11 12 13 12 11 11 12 11 12 9
5 9 11 9 7 5 3 5 10 8 12 9 6 10 15 14 12 7 7 8 7 9 9 11 12 11 12 13 14 13 12 11 12 12 9 13 12 11 11 12 12 9 11 12
8 4 13 12 9 6 5 9 10 10 6 10 8 12 13 10 5 7 7 8 10 9 11 12 11 10 11 13 14 12 12 10 13 12 13 10 12 13 13 11 11 12 13 13
6 8 3 3 5 3 10 5 6 12 13 13 13 10 9 4 7 8 8 10 11 11 11 12 10 10 12 13 13 12 12 14 13 12 10 4 13 11 11 16 11 13 15 15
4 5 6 7 6 16 18 15 15 12 10 4 8 11 12 11 11 10 10 10 10 11 11 11 10 10 11 13 12 12 14 12 9 8 11 12 8 11 12 15 14 11 11 12
7 10 4 12 10 17 10 12 14 11 10 8 10 11 11 10 11 10 9 10 10 10 10 10 11 12 12 12 12 11 12 11 9 10 10 8 11 12 10 9 9 10 9 10
4 9 10 4 8 11 16 13 11 11 9 9 10 12 13 11 11 9 9 10 9 10 10 10 11 11 12 12 12 12 11 9 8 9 8 10 9 14 11 10 9 11 10 10
5 5 5 4 11 8 6 10 11 10 10 12 12 12 12 11 11 9 9 9 9 10 11 10 12 11 12 11 11 12 11 10 8 9 7 10 9 9 11 11 15 28 24 31
Wind_Direction
202 222 225 228 224 247 260 261 259 265 266 261 259 257 252 239 255 257 251 256 260 256 304 294 341 337 326 303 287 269 248 216 202 198 196 180 187 177 191 197 204 199 207 192
202 234 247 243 244 237 244 252 256 267 242 272 271 270 271 251 246 248 250 243 233 300 305 340 339 335 333 325 301 277 235 209 205 189 189 189 187 191 189 190 193 191 205 201
238 243 235 235 234 236 237 246 254 260 271 254 265 273 252 240 237 216 211 214 216 313 328 345 347 348 335 328 316 270 235 201 216 200 190 192 179 162 183 193 193 201 210 214
256 268 245 229 236 234 247 237 249 258 249 254 224 264 160 172 186 180 166 163 150 66 17 359 342 351 348 352 332 281 246 195 212 207 187 195 187 185 197 193 182 198 211 209
245 262 251 242 245 228 247 230 241 246 239 255 232 252 240 191 178 162 148 130 102 47 356 347 349 343 356 5 348 323 278 204 214 206 202 199 203 198 180 175 182 195 179 201
260 269 265 265 264 254 241 247 245 230 228 239 237 221 214 178 204 153 131 98 86 38 9 353 358 346 356 359 3 332 305 236 213 217 213 202 201 195 187 182 186 185 162 159
302 261 233 232 254 227 226 212 199 211 213 243 235 213 241 114 93 115 114 96 55 24 12 1 3 355 350 350 344 338 285 242 199 219 207 206 199 196 195 194 196 184 168 161
305 287 280 219 233 243 197 206 225 218 226 233 179 221 133 99 114 113 99 74 18 8 10 9 7 357 355 350 344 326 258 239 209 209 204 205 192 190 200 192 198 197 171 173
310 264 346 71 348 225 212 229 242 268 284 281 177 98 123 139 115 104 85 48 20 6 4 2 357 1 357 0 354 339 284 250 218 207 201 195 198 201 199 183 206 180 185 189
309 289 282 307 337 287 228 254 228 234 236 235 237 184 164 168 138 101 54 21 359 348 345 347 346 352 350 356 7 352 320 283 234 208 212 201 202 201 195 187 192 186 175 172
291 272 277 294 131 240 300 223 250 268 231 242 238 218 128 153 133 55 32 8 337 325 321 337 336 343 343 347 353 5 330 267 241 212 212 215 202 201 193 182 182 185 173 177
309 295 276 294 14 18 195 272 286 258 195 231 273 218 149 144 131 349 337 347 331 312 306 317 326 343 349 350 352 1 357 267 233 213 212 216 201 202 194 188 176 178 202 203
332 260 282 245 176 56 359 349 167 175 321 254 242 214 165 171 262 314 328 329 320 307 290 300 315 339 355 356 346 348 346 335 227 208 207 209 195 198 194 185 173 164 169 201
280 273 272 285 325 320 270 272 302 312 257 304 240 258 178 257 289 328 317 319 313 304 286 295 291 310 336 351 354 349 344 336 252 203 204 203 202 201 194 181 160 158 165 183
257 276 279 282 289 288 256 281 279 263 270 267 271 285 296 292 314 317 310 307 308 303 284 285 310 316 335 344 344 349 343 336 307 197 198 205 197 195 187 174 154 154 160 164
266 274 281 276 274 279 278 272 267 268 270 271 272 280 273 300 310 300 303 306 306 299 301 320 331 329 330 332 338 333 343 330 315 216 201 207 190 193 186 168 154 156 151 145
287 283 291 285 286 287 273 264 261 267 266 266 271 275 301 302 295 297 295 295 290 320 322 328 332 338 329 330 339 326 336 313 300 285 200 198 189 186 185 168 158 148 128 112
266 277 286 280 276 251 273 290 281 286 285 276 265 274 285 294 305 300 284 273 295 310 339 347 344 341 336 334 340 329 332 309 300 288 208 187 186 185 186 170 146 118 110 108
245 264 265 255 266 282 289 293 282 261 274 282 278 296 312 315 299 270 267 48 45 19 2 355 352 344 341 344 342 327 337 329 321 276 207 187 177 173 174 138 131 123 112 100
339 251 252 244 263 260 254 349 340 311 272 42 352 309 313 307 282 67 57 37 34 17 9 355 357 346 351 347 341 337 344 331 318 326 296 183 175 154 141 129 124 109 106 106
295 226 217 232 241 264 329 327 290 256 1 345 353 320 288 277 18 42 40 34 31 17 8 4 2 353 357 355 343 350 344 336 321 315 314 194 149 133 129 120 122 118 111 105
312 323 360 234 242 260 14 322 323 341 317 1 319 299 295 93 77 48 26 26 18 12 8 12 1 360 6 1 353 350 345 338 332 351 349 48 123 124 127 122 118 117 116 109
313 337 309 320 317 356 344 317 300 296 305 347 344 12 19 39 34 27 32 23 19 11 10 6 3 360 10 6 1 350 345 334 353 21 39 31 66 106 118 124 123 117 117 118
319 296 305 303 26 346 357 359 14 13 49 32 27 30 30 37 30 39 31 22 18 12 8 360 2 10 7 0 1 353 346 347 2 37 31 66 59 75 87 97 104 113 118 119
295 305 327 325 347 342 23 12 3 9 21 26 45 41 33 31 38 36 32 23 15 12 6 9 10 8 7 0 359 356 352 4 23 36 57 53 66 78 63 69 84 92 81 97
15 351 348 341 336 315 336 358 7 10 9 16 27 35 36 28 31 30 36 30 21 11 9 13 16 9 9 8 1 1 4 18 27 50 41 63 61 67 89 83 83 79 96 98